QPF
0.00 0.00 0.01 0.01 0.00 0.00 0.00 0.00 0.00 0.01 0.01 0.01 0.02 0.02 0.02 0.02 0.02 0.03 0.03 0.03 0.03 0.03 0.03 0.03 0.03 0.02 0.02 0.01 0.01 0.01 0.01 0.01 0.01 0.00 0.00 0.00 0.00 0.00 0.00 0.00 0.00 0.00 0.00
0.00 0.00 0.00 0.00 0.00 0.00 0.00 0.00 0.00 0.00 0.01 0.01 0.01 0.02 0.02 0.02 0.02 0.02 0.03 0.03 0.03 0.03 0.02 0.02 0.02 0.02 0.02 0.01 0.01 0.01 0.01 0.01 0.01 0.01 0.00 0.00 0.00 0.00 0.00 0.01 0.00 0.00 0.00
0.00 0.00 0.00 0.00 0.00 0.00 0.00 0.00 0.00 0.00 0.01 0.01 0.01 0.01 0.01 0.02 0.01 0.01 0.01 0.02 0.03 0.02 0.02 0.02 0.02 0.02 0.02 0.01 0.01 0.01 0.01 0.01 0.01 0.01 0.00 0.00 0.00 0.00 0.01 0.01 0.01 0.01 0.01
0.00 0.00 0.00 0.00 0.01 0.01 0.00 0.00 0.00 0.01 0.01 0.01 0.01 0.01 0.01 0.01 0.01 0.01 0.02 0.02 0.02 0.02 0.02 0.02 0.02 0.02 0.01 0.01 0.01 0.01 0.01 0.01 0.01 0.01 0.01 0.01 0.01 0.01 0.01 0.01 0.01 0.01 0.01
0.00 0.01 0.01 0.01 0.01 0.01 0.01 0.01 0.01 0.01 0.01 0.01 0.01 0.01 0.01 0.01 0.02 0.02 0.02 0.02 0.02 0.02 0.02 0.02 0.02 0.02 0.02 0.02 0.02 0.01 0.01 0.01 0.01 0.01 0.01 0.01 0.01 0.01 0.01 0.01 0.01 0.01 0.02
0.01 0.01 0.01 0.01 0.01 0.01 0.01 0.01 0.01 0.01 0.01 0.01 0.01 0.01 0.01 0.01 0.02 0.02 0.02 0.02 0.02 0.02 0.02 0.02 0.02 0.02 0.02 0.02 0.02 0.02 0.03 0.03 0.03 0.03 0.02 0.02 0.02 0.02 0.02 0.02 0.02 0.02 0.02
0.00 0.00 0.00 0.00 0.00 0.01 0.01 0.01 0.01 0.01 0.01 0.01 0.01 0.01 0.02 0.02 0.02 0.03 0.03 0.02 0.02 0.02 0.02 0.02 0.03 0.03 0.03 0.03 0.04 0.04 0.04 0.04 0.03 0.03 0.03 0.03 0.03 0.02 0.03 0.03 0.03 0.03 0.03
0.00 0.00 0.00 0.00 0.00 0.00 0.00 0.00 0.01 0.01 0.01 0.01 0.01 0.01 0.01 0.01 0.02 0.02 0.03 0.03 0.03 0.03 0.02 0.02 0.02 0.03 0.03 0.03 0.03 0.04 0.03 0.03 0.03 0.03 0.02 0.02 0.02 0.02 0.03 0.03 0.03 0.04 0.04
0.00 0.00 0.00 0.00 0.00 0.00 0.00 0.00 0.01 0.01 0.01 0.01 0.01 0.01 0.01 0.01 0.01 0.01 0.02 0.02 0.02 0.03 0.04 0.03 0.02 0.02 0.02 0.02 0.02 0.02 0.02 0.02 0.02 0.02 0.02 0.02 0.02 0.02 0.03 0.03 0.04 0.04 0.04
0.00 0.00 0.00 0.00 0.01 0.01 0.01 0.01 0.01 0.01 0.01 0.01 0.01 0.01 0.01 0.00 0.01 0.01 0.01 0.00 0.01 0.01 0.01 0.01 0.02 0.02 0.02 0.02 0.01 0.01 0.01 0.01 0.01 0.01 0.01 0.01 0.01 0.02 0.02 0.03 0.03 0.04 0.04
0.00 0.01 0.01 0.01 0.01 0.01 0.01 0.01 0.01 0.01 0.01 0.01 0.00 0.00 0.00 0.01 0.01 0.01 0.01 0.00 0.00 0.00 0.00 0.01 0.01 0.01 0.01 0.01 0.01 0.01 0.01 0.01 0.01 0.01 0.01 0.01 0.01 0.01 0.01 0.02 0.02 0.03 0.04
0.00 0.00 0.01 0.01 0.01 0.01 0.01 0.01 0.01 0.01 0.01 0.01 0.01 0.01 0.01 0.01 0.01 0.01 0.01 0.01 0.01 0.01 0.01 0.01 0.01 0.01 0.01 0.01 0.01 0.01 0.01 0.01 0.01 0.01 0.01 0.01 0.01 0.01 0.01 0.01 0.02 0.02 0.02
0.00 0.00 0.01 0.01 0.01 0.01 0.01 0.01 0.01 0.01 0.01 0.01 0.01 0.01 0.00 0.01 0.01 0.01 0.01 0.01 0.01 0.01 0.01 0.01 0.01 0.01 0.01 0.01 0.01 0.01 0.01 0.01 0.01 0.01 0.01 0.01 0.01 0.01 0.01 0.01 0.01 0.01 0.02
0.00 0.00 0.00 0.00 0.01 0.01 0.01 0.01 0.01 0.01 0.01 0.01 0.01 0.01 0.01 0.01 0.01 0.01 0.01 0.01 0.01 0.01 0.01 0.01 0.01 0.01 0.01 0.01 0.01 0.01 0.01 0.01 0.01 0.01 0.01 0.01 0.01 0.01 0.02 0.01 0.02 0.02 0.02
0.01 0.01 0.00 0.00 0.00 0.00 0.01 0.01 0.01 0.01 0.01 0.01 0.01 0.01 0.01 0.01 0.01 0.01 0.01 0.01 0.01 0.01 0.01 0.01 0.01 0.01 0.01 0.01 0.00 0.00 0.01 0.01 0.01 0.01 0.01 0.02 0.02 0.02 0.02 0.02 0.02 0.02 0.02
0.01 0.01 0.00 0.00 0.00 0.01 0.01 0.01 0.01 0.01 0.01 0.01 0.01 0.01 0.01 0.01 0.01 0.02 0.02 0.01 0.01 0.02 0.02 0.01 0.01 0.01 0.00 0.00 0.00 0.01 0.01 0.01 0.01 0.01 0.01 0.02 0.02 0.02 0.02 0.02 0.02 0.02 0.02
0.01 0.01 0.01 0.01 0.01 0.01 0.01 0.01 0.01 0.01 0.01 0.01 0.01 0.01 0.01 0.01 0.01 0.01 0.01 0.01 0.01 0.01 0.01 0.01 0.01 0.01 0.01 0.01 0.01 0.01 0.01 0.01 0.01 0.01 0.01 0.01 0.01 0.01 0.02 0.01 0.01 0.01 0.01
0.01 0.01 0.01 0.01 0.01 0.00 0.01 0.01 0.01 0.01 0.01 0.01 0.01 0.01 0.01 0.01 0.01 0.01 0.01 0.01 0.01 0.01 0.01 0.01 0.01 0.01 0.01 0.01 0.01 0.01 0.01 0.01 0.01 0.01 0.01 0.01 0.01 0.02 0.02 0.01 0.01 0.01 0.01
0.01 0.01 0.01 0.00 0.00 0.00 0.00 0.00 0.01 0.01 0.01 0.01 0.01 0.01 0.01 0.01 0.01 0.01 0.02 0.02 0.01 0.01 0.01 0.01 0.01 0.01 0.02 0.02 0.02 0.01 0.01 0.01 0.01 0.01 0.01 0.01 0.02 0.02 0.02 0.01 0.01 0.01 0.01
0.01 0.01 0.01 0.00 0.00 0.00 0.00 0.00 0.00 0.00 0.01 0.01 0.01 0.01 0.01 0.01 0.01 0.01 0.02 0.02 0.01 0.01 0.01 0.01 0.01 0.01 0.02 0.02 0.02 0.02 0.02 0.01 0.01 0.01 0.01 0.02 0.02 0.02 0.02 0.02 0.02 0.02 0.02
0.01 0.01 0.00 0.00 0.00 0.00 0.00 0.00 0.01 0.01 0.01 0.01 0.01 0.01 0.02 0.02 0.02 0.01 0.02 0.02 0.02 0.01 0.01 0.01 0.02 0.02 0.02 0.02 0.02 0.02 0.02 0.01 0.01 0.01 0.02 0.02 0.02 0.02 0.02 0.02 0.02 0.02 0.02
0.01 0.01 0.01 0.00 0.00 0.00 0.01 0.01 0.01 0.01 0.01 0.01 0.01 0.01 0.02 0.02 0.02 0.02 0.02 0.02 0.02 0.02 0.02 0.02 0.02 0.02 0.02 0.02 0.02 0.02 0.02 0.02 0.02 0.02 0.02 0.02 0.02 0.02 0.02 0.02 0.02 0.02 0.02
0.01 0.01 0.01 0.01 0.01 0.01 0.01 0.01 0.01 0.01 0.01 0.01 0.01 0.01 0.02 0.02 0.02 0.01 0.01 0.01 0.02 0.02 0.02 0.02 0.02 0.02 0.02 0.02 0.02 0.02 0.02 0.02 0.02 0.02 0.02 0.02 0.02 0.02 0.02 0.02 0.02 0.02 0.02
0.01 0.01 0.01 0.01 0.01 0.01 0.01 0.01 0.01 0.01 0.01 0.01 0.02 0.02 0.02 0.02 0.02 0.02 0.02 0.02 0.02 0.02 0.02 0.02 0.02 0.02 0.02 0.02 0.02 0.02 0.02 0.02 0.02 0.02 0.02 0.02 0.02 0.02 0.02 0.02 0.02 0.02 0.02
0.01 0.01 0.01 0.01 0.01 0.01 0.01 0.01 0.01 0.01 0.01 0.01 0.02 0.02 0.02 0.02 0.02 0.02 0.02 0.02 0.02 0.02 0.02 0.03 0.03 0.02 0.02 0.02 0.02 0.02 0.02 0.02 0.03 0.03 0.03 0.03 0.02 0.02 0.02 0.02 0.02 0.02 0.02
0.01 0.01 0.01 0.01 0.01 0.01 0.01 0.01 0.01 0.01 0.01 0.01 0.01 0.02 0.02 0.02 0.02 0.02 0.02 0.02 0.02 0.02 0.02 0.02 0.02 0.02 0.02 0.02 0.02 0.02 0.02 0.03 0.03 0.02 0.03 0.03 0.02 0.02 0.02 0.02 0.02 0.02 0.02
MSLP
1006.72 1007.40 1008.16 1008.96 1009.76 1010.54 1011.31 1012.07 1012.85 1013.64 1014.46 1015.31 1016.17 1017.02 1017.85 1018.64 1019.39 1020.10 1020.77 1021.40 1022.00 1022.57 1023.13 1023.66 1024.18 1024.70 1025.23 1025.80 1026.42 1027.11 1027.87 1028.70 1029.57 1030.46 1031.32 1032.10 1032.77 1033.29 1033.67 1033.91 1034.03 1034.07 1034.08
1006.02 1006.63 1007.34 1008.08 1008.84 1009.59 1010.34 1011.10 1011.87 1012.66 1013.47 1014.30 1015.14 1015.97 1016.78 1017.57 1018.32 1019.05 1019.74 1020.40 1021.05 1021.66 1022.25 1022.82 1023.37 1023.90 1024.45 1025.03 1025.66 1026.36 1027.14 1027.99 1028.90 1029.84 1030.75 1031.60 1032.33 1032.94 1033.39 1033.70 1033.90 1034.00 1034.05
1005.52 1006.06 1006.69 1007.36 1008.06 1008.77 1009.50 1010.23 1010.99 1011.76 1012.55 1013.35 1014.15 1014.94 1015.71 1016.46 1017.20 1017.91 1018.61 1019.30 1019.98 1020.65 1021.29 1021.90 1022.49 1023.06 1023.63 1024.23 1024.86 1025.57 1026.35 1027.20 1028.12 1029.07 1030.01 1030.89 1031.69 1032.36 1032.89 1033.29 1033.57 1033.76 1033.89
1005.21 1005.66 1006.20 1006.79 1007.42 1008.08 1008.76 1009.47 1010.20 1010.95 1011.71 1012.47 1013.22 1013.95 1014.66 1015.35 1016.04 1016.72 1017.41 1018.11 1018.81 1019.51 1020.20 1020.86 1021.50 1022.11 1022.71 1023.32 1023.96 1024.65 1025.42 1026.25 1027.15 1028.08 1029.02 1029.92 1030.75 1031.48 1032.09 1032.59 1032.98 1033.28 1033.52
1005.07 1005.42 1005.85 1006.34 1006.89 1007.48 1008.12 1008.79 1009.50 1010.22 1010.94 1011.66 1012.34 1013.01 1013.64 1014.26 1014.88 1015.51 1016.16 1016.84 1017.55 1018.27 1018.99 1019.70 1020.37 1021.02 1021.65 1022.27 1022.90 1023.57 1024.30 1025.09 1025.94 1026.84 1027.76 1028.65 1029.51 1030.29 1030.98 1031.59 1032.10 1032.53 1032.90
1005.06 1005.29 1005.61 1005.99 1006.44 1006.96 1007.55 1008.18 1008.85 1009.54 1010.23 1010.89 1011.53 1012.11 1012.67 1013.21 1013.75 1014.31 1014.91 1015.56 1016.25 1016.97 1017.71 1018.43 1019.13 1019.81 1020.45 1021.06 1021.68 1022.32 1023.01 1023.74 1024.54 1025.38 1026.26 1027.14 1028.01 1028.83 1029.60 1030.31 1030.94 1031.52 1032.04
1005.13 1005.25 1005.44 1005.71 1006.06 1006.50 1007.02 1007.60 1008.24 1008.89 1009.54 1010.16 1010.73 1011.26 1011.74 1012.20 1012.66 1013.16 1013.69 1014.29 1014.95 1015.66 1016.39 1017.12 1017.83 1018.51 1019.15 1019.76 1020.35 1020.96 1021.59 1022.27 1023.01 1023.79 1024.63 1025.49 1026.35 1027.21 1028.04 1028.84 1029.59 1030.30 1030.96
1005.24 1005.24 1005.31 1005.46 1005.71 1006.06 1006.51 1007.04 1007.62 1008.24 1008.85 1009.42 1009.94 1010.41 1010.83 1011.22 1011.62 1012.05 1012.53 1013.08 1013.71 1014.38 1015.09 1015.81 1016.52 1017.19 1017.82 1018.41 1018.98 1019.55 1020.14 1020.77 1021.45 1022.19 1022.98 1023.81 1024.68 1025.55 1026.43 1027.29 1028.14 1028.96 1029.75
1005.33 1005.22 1005.18 1005.22 1005.37 1005.63 1006.00 1006.45 1006.98 1007.54 1008.10 1008.62 1009.10 1009.51 1009.88 1010.23 1010.58 1010.97 1011.41 1011.93 1012.52 1013.17 1013.85 1014.55 1015.24 1015.90 1016.51 1017.09 1017.64 1018.18 1018.74 1019.34 1019.98 1020.68 1021.44 1022.25 1023.10 1023.98 1024.89 1025.80 1026.70 1027.60 1028.48
1005.34 1005.15 1005.02 1004.96 1005.02 1005.18 1005.46 1005.84 1006.29 1006.78 1007.27 1007.74 1008.16 1008.53 1008.86 1009.18 1009.50 1009.87 1010.29 1010.79 1011.37 1012.00 1012.67 1013.35 1014.02 1014.65 1015.26 1015.82 1016.36 1016.89 1017.43 1018.01 1018.64 1019.33 1020.07 1020.87 1021.71 1022.60 1023.50 1024.43 1025.37 1026.31 1027.23
1005.26 1005.00 1004.80 1004.67 1004.64 1004.72 1004.91 1005.19 1005.55 1005.95 1006.35 1006.74 1007.10 1007.43 1007.73 1008.03 1008.35 1008.71 1009.14 1009.65 1010.22 1010.85 1011.51 1012.17 1012.83 1013.45 1014.04 1014.59 1015.13 1015.66 1016.21 1016.80 1017.44 1018.13 1018.88 1019.68 1020.53 1021.41 1022.32 1023.24 1024.18 1025.12 1026.06
1005.05 1004.76 1004.51 1004.33 1004.24 1004.24 1004.33 1004.52 1004.76 1005.05 1005.35 1005.65 1005.93 1006.21 1006.48 1006.77 1007.09 1007.48 1007.93 1008.45 1009.04 1009.68 1010.33 1010.99 1011.63 1012.24 1012.81 1013.37 1013.91 1014.46 1015.03 1015.65 1016.32 1017.05 1017.83 1018.65 1019.51 1020.40 1021.30 1022.21 1023.13 1024.06 1024.99
1004.72 1004.42 1004.16 1003.95 1003.81 1003.74 1003.75 1003.82 1003.95 1004.11 1004.29 1004.48 1004.68 1004.90 1005.14 1005.42 1005.76 1006.17 1006.65 1007.20 1007.81 1008.45 1009.11 1009.75 1010.38 1010.97 1011.54 1012.09 1012.64 1013.21 1013.82 1014.49 1015.21 1016.00 1016.83 1017.70 1018.59 1019.49 1020.40 1021.31 1022.20 1023.10 1024.00
1004.30 1004.01 1003.75 1003.53 1003.35 1003.23 1003.15 1003.13 1003.13 1003.17 1003.22 1003.30 1003.41 1003.56 1003.76 1004.03 1004.37 1004.80 1005.31 1005.89 1006.51 1007.16 1007.81 1008.44 1009.04 1009.61 1010.16 1010.71 1011.27 1011.87 1012.53 1013.25 1014.04 1014.89 1015.80 1016.73 1017.67 1018.61 1019.54 1020.44 1021.33 1022.20 1023.06
1003.83 1003.56 1003.31 1003.08 1002.89 1002.71 1002.57 1002.44 1002.34 1002.25 1002.19 1002.16 1002.18 1002.26 1002.41 1002.66 1003.01 1003.45 1003.97 1004.56 1005.18 1005.82 1006.45 1007.05 1007.62 1008.16 1008.68 1009.21 1009.78 1010.41 1011.11 1011.89 1012.75 1013.68 1014.67 1015.68 1016.69 1017.68 1018.63 1019.56 1020.44 1021.30 1022.13
1003.39 1003.11 1002.86 1002.63 1002.41 1002.20 1001.99 1001.78 1001.57 1001.38 1001.22 1001.09 1001.03 1001.05 1001.16 1001.39 1001.72 1002.16 1002.68 1003.25 1003.86 1004.47 1005.06 1005.61 1006.13 1006.63 1007.12 1007.63 1008.20 1008.84 1009.58 1010.41 1011.35 1012.36 1013.42 1014.51 1015.59 1016.64 1017.64 1018.59 1019.49 1020.35 1021.18
1003.01 1002.72 1002.45 1002.19 1001.94 1001.68 1001.41 1001.12 1000.84 1000.56 1000.31 1000.11 999.98 999.95 1000.03 1000.23 1000.54 1000.96 1001.46 1002.01 1002.58 1003.14 1003.67 1004.16 1004.62 1005.07 1005.52 1006.01 1006.57 1007.22 1007.99 1008.87 1009.86 1010.94 1012.07 1013.23 1014.38 1015.49 1016.54 1017.53 1018.46 1019.33 1020.16
1002.75 1002.40 1002.08 1001.77 1001.46 1001.14 1000.81 1000.46 1000.11 999.77 999.45 999.20 999.03 998.96 999.02 999.19 999.48 999.87 1000.33 1000.83 1001.34 1001.84 1002.31 1002.73 1003.13 1003.52 1003.93 1004.40 1004.95 1005.61 1006.41 1007.33 1008.36 1009.49 1010.68 1011.88 1013.08 1014.24 1015.34 1016.36 1017.32 1018.22 1019.07
1002.64 1002.19 1001.78 1001.38 1000.99 1000.60 1000.19 999.77 999.36 998.97 998.61 998.33 998.13 998.05 998.08 998.24 998.50 998.85 999.26 999.70 1000.15 1000.58 1000.97 1001.33 1001.67 1002.02 1002.40 1002.85 1003.40 1004.08 1004.89 1005.83 1006.90 1008.05 1009.27 1010.51 1011.74 1012.93 1014.05 1015.11 1016.10 1017.03 1017.91
1002.67 1002.10 1001.56 1001.04 1000.54 1000.04 999.55 999.06 998.59 998.15 997.77 997.46 997.25 997.16 997.18 997.31 997.54 997.85 998.21 998.59 998.97 999.32 999.65 999.95 1000.25 1000.56 1000.93 1001.38 1001.94 1002.63 1003.46 1004.42 1005.51 1006.68 1007.90 1009.15 1010.38 1011.58 1012.72 1013.80 1014.81 1015.77 1016.69
1002.84 1002.12 1001.43 1000.77 1000.13 999.51 998.91 998.33 997.80 997.31 996.90 996.58 996.36 996.25 996.26 996.37 996.57 996.83 997.13 997.45 997.76 998.05 998.32 998.58 998.85 999.15 999.52 999.98 1000.56 1001.28 1002.13 1003.11 1004.19 1005.36 1006.58 1007.81 1009.03 1010.22 1011.36 1012.45 1013.48 1014.47 1015.42
1003.11 1002.24 1001.39 1000.57 999.78 999.03 998.32 997.65 997.04 996.50 996.05 995.71 995.47 995.35 995.33 995.41 995.57 995.78 996.02 996.27 996.52 996.75 996.98 997.21 997.46 997.77 998.15 998.64 999.25 1000.00 1000.87 1001.86 1002.95 1004.10 1005.30 1006.51 1007.70 1008.87 1009.99 1011.08 1012.13 1013.14 1014.14
1003.46 1002.45 1001.46 1000.49 999.56 998.68 997.85 997.08 996.39 995.79 995.29 994.91 994.65 994.49 994.44 994.48 994.58 994.73 994.91 995.09 995.28 995.46 995.65 995.85 996.11 996.42 996.83 997.35 997.99 998.76 999.65 1000.65 1001.73 1002.87 1004.04 1005.22 1006.38 1007.52 1008.64 1009.72 1010.78 1011.83 1012.86
1003.85 1002.74 1001.64 1000.56 999.51 998.51 997.57 996.71 995.94 995.27 994.72 994.29 993.98 993.78 993.67 993.65 993.69 993.77 993.87 993.99 994.11 994.24 994.39 994.57 994.81 995.14 995.56 996.10 996.77 997.55 998.45 999.45 1000.52 1001.64 1002.78 1003.93 1005.07 1006.20 1007.30 1008.39 1009.47 1010.55 1011.63
1004.27 1003.11 1001.95 1000.79 999.66 998.58 997.56 996.62 995.78 995.05 994.43 993.94 993.57 993.31 993.14 993.05 993.01 993.01 993.03 993.07 993.12 993.19 993.29 993.44 993.66 993.97 994.39 994.93 995.60 996.38 997.28 998.26 999.31 1000.41 1001.53 1002.65 1003.78 1004.90 1006.01 1007.11 1008.22 1009.33 1010.44
1004.71 1003.55 1002.38 1001.21 1000.04 998.92 997.85 996.86 995.96 995.17 994.49 993.94 993.50 993.17 992.93 992.75 992.63 992.54 992.48 992.43 992.40 992.40 992.43 992.53 992.70 992.98 993.37 993.88 994.52 995.27 996.13 997.09 998.11 999.17 1000.27 1001.39 1002.51 1003.64 1004.76 1005.89 1007.03 1008.18 1009.33
Thickness
5499 5499 5500 5500 5500 5501 5500 5500 5500 5500 5499 5498 5497 5496 5495 5493 5492 5489 5487 5485 5483 5481 5479 5477 5477 5475 5473 5471 5469 5467 5465 5463 5465 5469 5468 5466 5465 5464 5463 5461 5460 5458 5456
5489 5490 5490 5491 5491 5491 5491 5490 5490 5490 5490 5489 5488 5487 5486 5485 5483 5481 5479 5477 5475 5473 5471 5469 5468 5466 5464 5462 5460 5458 5456 5454 5453 5455 5457 5455 5454 5453 5453 5452 5451 5449 5447
5478 5479 5480 5480 5480 5480 5480 5480 5479 5479 5479 5478 5478 5477 5476 5475 5473 5472 5470 5468 5466 5464 5462 5461 5459 5457 5455 5453 5451 5449 5447 5445 5443 5443 5445 5444 5443 5442 5441 5441 5440 5439 5438
5467 5468 5469 5469 5469 5469 5469 5468 5468 5468 5467 5467 5467 5467 5466 5465 5464 5462 5460 5458 5456 5454 5453 5451 5450 5448 5447 5445 5443 5441 5439 5436 5434 5433 5434 5433 5432 5431 5429 5428 5429 5428 5428
5456 5457 5458 5458 5458 5457 5457 5457 5457 5456 5456 5455 5455 5455 5455 5454 5453 5452 5450 5448 5446 5444 5442 5441 5441 5440 5438 5436 5435 5433 5430 5427 5425 5423 5423 5422 5421 5419 5417 5416 5415 5417 5417
5445 5445 5446 5445 5446 5446 5445 5445 5445 5445 5444 5443 5443 5443 5443 5443 5443 5442 5440 5438 5436 5434 5433 5432 5430 5429 5428 5427 5426 5424 5422 5419 5417 5415 5414 5413 5413 5410 5407 5404 5402 5402 5404
5432 5433 5433 5433 5433 5433 5434 5433 5433 5433 5432 5431 5431 5430 5430 5430 5431 5430 5429 5427 5425 5424 5422 5421 5420 5419 5418 5416 5414 5413 5411 5409 5408 5406 5404 5404 5402 5400 5396 5394 5391 5390 5392
5419 5419 5420 5420 5421 5421 5421 5421 5420 5420 5419 5419 5418 5417 5417 5417 5418 5418 5416 5414 5413 5412 5411 5410 5408 5407 5406 5404 5402 5401 5400 5398 5396 5395 5393 5392 5390 5387 5385 5383 5381 5379 5380
5405 5405 5406 5406 5407 5407 5408 5408 5407 5407 5406 5406 5405 5404 5404 5404 5404 5404 5403 5401 5400 5400 5399 5397 5395 5394 5394 5392 5390 5389 5388 5387 5384 5382 5381 5380 5378 5375 5373 5370 5367 5366 5367
5391 5391 5392 5392 5393 5393 5394 5394 5393 5393 5393 5393 5392 5391 5390 5390 5390 5390 5389 5388 5387 5387 5386 5384 5383 5382 5380 5378 5377 5376 5375 5375 5371 5369 5368 5367 5365 5363 5360 5357 5355 5353 5352
5376 5377 5377 5378 5378 5379 5379 5379 5378 5378 5378 5378 5378 5377 5376 5376 5375 5375 5375 5374 5373 5373 5372 5371 5370 5368 5367 5366 5364 5363 5362 5361 5358 5355 5354 5353 5351 5349 5347 5344 5341 5339 5338
5361 5362 5363 5363 5363 5363 5363 5363 5362 5362 5362 5363 5362 5362 5362 5361 5360 5360 5360 5359 5359 5358 5358 5357 5356 5355 5353 5352 5350 5349 5347 5345 5343 5341 5340 5339 5337 5335 5332 5329 5327 5325 5324
5346 5347 5347 5348 5348 5348 5348 5348 5347 5346 5346 5347 5346 5347 5347 5346 5345 5345 5344 5344 5343 5342 5342 5341 5341 5339 5338 5337 5336 5334 5332 5329 5327 5325 5324 5323 5321 5318 5315 5313 5312 5310 5309
5330 5330 5331 5332 5332 5332 5332 5332 5332 5332 5331 5331 5331 5331 5331 5330 5329 5329 5328 5327 5327 5326 5325 5325 5324 5323 5322 5321 5319 5317 5315 5313 5311 5309 5308 5306 5304 5301 5299 5297 5295 5294 5293
5313 5314 5314 5315 5316 5316 5316 5316 5317 5317 5316 5317 5317 5316 5315 5316 5316 5314 5313 5313 5311 5311 5309 5307 5306 5305 5304 5303 5301 5299 5298 5296 5294 5292 5290 5289 5287 5286 5284 5281 5279 5278 5277
5296 5297 5297 5298 5298 5299 5299 5300 5302 5302 5303 5303 5303 5302 5302 5302 5302 5300 5299 5299 5298 5296 5292 5291 5290 5289 5288 5287 5285 5284 5282 5280 5278 5276 5274 5273 5271 5270 5268 5266 5264 5263 5263
5277 5279 5279 5280 5281 5281 5282 5283 5285 5287 5287 5287 5287 5287 5287 5287 5286 5286 5285 5284 5283 5280 5276 5276 5275 5274 5273 5271 5270 5268 5267 5265 5262 5260 5259 5257 5256 5254 5252 5251 5249 5248 5248
5259 5261 5262 5263 5263 5264 5265 5266 5267 5268 5270 5271 5271 5271 5272 5271 5271 5270 5269 5268 5266 5264 5262 5261 5260 5260 5258 5256 5255 5253 5251 5249 5247 5245 5243 5242 5240 5239 5237 5236 5235 5234 5233
5243 5244 5245 5246 5247 5248 5249 5250 5251 5252 5253 5255 5256 5256 5256 5255 5256 5255 5254 5251 5251 5250 5249 5247 5246 5245 5243 5242 5240 5238 5237 5235 5233 5231 5229 5227 5226 5224 5223 5222 5221 5220 5219
5226 5228 5229 5230 5230 5232 5233 5235 5236 5237 5238 5239 5240 5241 5240 5239 5239 5240 5239 5238 5237 5237 5235 5234 5233 5231 5229 5227 5225 5224 5222 5221 5219 5217 5216 5214 5213 5211 5210 5209 5208 5207 5206
5211 5213 5214 5214 5215 5216 5218 5219 5221 5222 5224 5225 5226 5225 5226 5225 5226 5226 5226 5226 5225 5224 5223 5221 5220 5218 5216 5214 5213 5212 5210 5209 5207 5206 5204 5203 5201 5199 5198 5197 5196 5195 5194
5195 5197 5198 5199 5200 5200 5202 5204 5205 5207 5209 5211 5212 5212 5213 5212 5212 5212 5213 5214 5213 5212 5211 5210 5209 5207 5206 5204 5202 5201 5200 5199 5197 5195 5193 5192 5190 5188 5186 5185 5184 5183 5182
5179 5181 5182 5183 5184 5186 5187 5188 5189 5192 5194 5197 5198 5198 5198 5198 5198 5199 5200 5200 5200 5200 5200 5199 5198 5197 5196 5194 5193 5192 5191 5190 5188 5185 5183 5181 5179 5177 5175 5174 5173 5171 5171
5164 5165 5167 5168 5170 5171 5173 5175 5176 5178 5180 5182 5183 5184 5185 5185 5186 5186 5187 5187 5187 5188 5188 5187 5187 5187 5186 5185 5184 5183 5182 5181 5179 5176 5174 5172 5170 5168 5165 5164 5163 5161 5160
5148 5150 5151 5153 5155 5157 5159 5161 5163 5165 5166 5168 5169 5170 5171 5172 5173 5174 5175 5175 5175 5176 5177 5176 5176 5176 5177 5176 5175 5174 5173 5172 5170 5168 5165 5163 5161 5159 5157 5155 5154 5152 5150
5135 5136 5138 5140 5142 5144 5145 5148 5150 5152 5154 5155 5156 5157 5158 5159 5160 5161 5162 5163 5164 5166 5167 5167 5167 5167 5167 5166 5166 5166 5165 5164 5162 5160 5157 5155 5153 5151 5149 5147 5145 5143 5141